STARLINK-5667, 55337

Orbit data source: Space-Track

STARLINK-5667, 55337 is a payload satellite owned by SpaceX/Seattle (US) in LEO that was launched on Thu, 26 Jan 2023 UTC via an FALCON 9 launch vehicle from the Air Force Eastern Test Range (AFETR). Payload-class satellites include a variety of spacecraft equipped with specific instruments for various scientific and technological missions. These include communications satellites like Starlink; space stations such as the ISS; scientific satellites like the Hubble; Earth observation satellites from companies like Planet Labs, Umbra, and HawkEye 360; GPS; miniature CubeSats for education and research; and military/defense satellites.

Loading next visibility...
Identifier
55337, 2023-013G
Orbit
LEO
Country
Flag of USUS
Related business
Manufacturer
SpaceX/Seattle
Mission
Operational Commercial Communications
Bus & Motor
STARLINK, Unknown motor
Mass
305 kg wet, ~290 kg dry
Launch date (UTC)
2023-01-26 (3 years ago)
Launch vehicle
FALCON 9
Launch site
Air Force Eastern Test Range (AFETR)
Object type
Payload
Rocket body
Debris
Shape & HBR
Box + 1 Pan, 10.1 m
Radar Cross Section
13.562 m², Large (>1 m²)

Expand to show TLE details & history
Last TLE update: 2 days ago

TLE from 2 days ago
0 STARLINK-5667
1 55337U 23013G   26171.05725326 -.00000119  00000-0  52118-5 0  9993
2 55337  43.0051  71.0076 0001637 267.3784  92.6880 15.27576594187496
Epoch: 2026-06-20T01:22Z
TLE epoch observation values (Epoch: 2026-06-20T01:22:26.681Z)
Latitude
-0.00005°
Longitude
142.11903°
Altitude
482.888 km
Speed
7.626 km/s
True Right ascension
04h 44m 01s
True Declination
0° 00' 00"
Sunlit
Object was in daylight at epoch
Visualization orbit readout
Latitude
Unknown
Longitude
Unknown
Altitude
Unknown
Speed
Unknown
Apparent Right ascension
Unknown
Apparent Declination
Unknown
Sunlit
N/A
Visualization observer readout
Local Sidereal Time
21:36:58
Azimuth
Unknown
Elevation
Unknown
Doppler factor
Unknown
Orbital elements
Apogee altitude
486.127 km
Perigee altitude
483.88 km
Semi-major axis
6,863.141 km
Eccentricity
0.00016
Inclination
43.0051°
RAAN
71.0076°
Arg. of periapsis
267.3784°
True anomaly
92.70674°
Mean anomaly
92.688°
Eccentric anomaly
92.69737°
Mean motion
3.81732 °/min
Orbital period
94.31 mins
BSTAR
0.0000052118
Loading maneuver chart data...
Computing Atmospheric mass density...
Loading historical data...
Loading historical data...
Loading historical data...
Loading historical data...
Loading historical data...
Loading historical data...
Loading historical data...

Documentation

Showing up to 5 results
|